Weather Roundup
Issued by NWS Chicago, IL

Home | Current Version | Previous Version | Graphics & Text | Print | Product List | Glossary On
Versions: 1 2 3 4 5 6 7 8 9 10 11 12 13 14 15 16 17 18 19 20 21 22 23 24 25 26 27 28 29 30 31 32 33 34 35 36 37 38 39 40 41 42 43 44 45 46 47 48 49 50
000
NZUS59 KLOT 241609
HRRLOT

CHICAGO AREA WEATHER ROUNDUP
NATIONAL WEATHER SERVICE CHICAGO/ROMEOVILLE IL
1100 AM CDT MON JUL 24 2017

NOTE: "FAIR" INDICATES FEW OR NO CLOUDS BELOW 12,000 FEET WITH NO
SIGNIFICANT WEATHER AND/OR OBSTRUCTIONS TO VISIBILITY.

* THESE STATIONS ARE NOT UNDER NWS QUALITY CONTROL. THEY ALSO MAY NOT
  REPORT WEATHER SUCH AS PRECIPITATION OR FOG.

ILZ005-006-012>014-019>023-241700-
NORTHEAST ILLINOIS

CITY           SKY/WX    TMP DP  RH WIND       PRES   REMARKS
OHARE          CLOUDY    71  57  61 NE15      30.03R
MIDWAY         CLOUDY    71  60  68 N15       30.02R
AURORA         PTSUNNY   71  61  70 NE12      30.04R
LANSING*       CLOUDY    70  57  63 N9        30.02R
JOLIET*        PTSUNNY   74  62  66 NE10      30.02S
WAUKEGAN       CLOUDY    68  58  70 N12G20    30.04R
DUPAGE AIRPORT CLOUDY    72  62  71 NE13      30.03R
WHEELING       CLOUDY    69  60  73 N14       30.05R
MORRIS*        PTSUNNY   74  62  67 NE5       30.02R
LEWIS AIRPORT* PTSUNNY   72  59  64 NE13      30.02S
NORTHERLY ISL    N/A     69  59  70 N10         N/A
$$

WIZ051-052-058>065-066-070>072-241700-
SOUTHEAST WISCONSIN

CITY           SKY/WX    TMP DP  RH WIND       PRES   REMARKS
MILWAUKEE      PTSUNNY   69  59  70 N15G24    30.06R
KENOSHA*       MOSUNNY   71  58  63 NE15G23   30.06R
RACINE*        PTSUNNY   70  60  70 NE16      30.07R
WAUKESHA       MOSUNNY   66  54  63 E12G18    30.07R
WEST BEND      PTSUNNY   68  57  68 NE10G18   30.08R
$$

INZ001>003-010>013-019-020-241700-
NORTHWEST INDIANA

CITY           SKY/WX    TMP DP  RH WIND       PRES   REMARKS
GARY*          PTSUNNY   75  61  60 N12G23    30.02S
MICHIGAN CITY* NOT AVBL
RENSSELAER*    NOT AVBL
VALPARAISO     CLOUDY    72  62  71 N8        30.02R
$$

LMZ740>746-241700-
SOUTHERN LAKE MICHIGAN

STATION/POSITION TIME  SKY/WX   TEMP WIND        PRES    VSBY
                                AIR  DIR/SP/G
                 (UTC)          (F)  (DEG/KT/KT) (MB)    (MI)
HARRISON CRIB    1540            69   20/ 16/ 17   N/A
BURNHAM HARBOR   1600            69                N/A
CALUMET HARBOR   1548            70  360/ 12/ 14 1016.1R
BURNS HARBOR     1540            69   20/ 16/ 18 1016.6R
MICHIGAN CITY    1540            68   10/ 18/ 20   N/A
$$

ABBREVIATIONS USED IN REMARKS
   TC - TEMPERATURE IN CELSIUS
  WCI - WIND CHILL INDEX
   HX - HEAT INDEX
  VSB - VISIBILITY
$$




USA.gov is the U.S. government's official web portal to all federal, state and local government web resources and services.